Data No, UTC Date,UTC Time,Latitude,Longitude,Course(deg),Temp(degC),Sal(psu),pH
840,2019/2/6,13:59,35-35.77N,139-47.22E,199,10.212,31.0276,8.24
841,2019/2/6,14:00,35-35.62N,139-47.20E,178,10.508,30.8965,8.24
842,2019/2/6,14:01,35-35.46N,139-47.25E,160,10.554,30.8499,8.23
843,2019/2/6,14:02,35-35.28N,139-47.35E,154,10.249,30.6182,8.22
844,2019/2/6,14:03,35-35.09N,139-47.46E,150,10.18,30.8428,8.21
845,2019/2/6,14:04,35-34.91N,139-47.63E,141,10.128,31.0393,8.21
846,2019/2/6,14:05,35-34.73N,139-47.81E,142,10.088,31.2191,8.2
847,2019/2/6,14:06,35-34.54N,139-47.99E,139,10.082,31.4008,8.21
848,2019/2/6,14:07,35-34.37N,139-48.20E,134,9.992,31.4182,8.21
849,2019/2/6,14:08,35-34.20N,139-48.41E,133,9.935,31.4975,8.21
850,2019/2/6,14:09,35-34.06N,139-48.65E,125,9.871,31.5798,8.21
851,2019/2/6,14:10,35-33.93N,139-48.88E,124,9.835,31.57,8.23
852,2019/2/6,14:11,35-33.79N,139-49.13E,124,9.746,31.5313,8.23
853,2019/2/6,14:12,35-33.65N,139-49.38E,124,9.647,31.4566,8.24
854,2019/2/6,14:13,35-33.51N,139-49.63E,126,9.612,31.425,8.24
855,2019/2/6,14:14,35-33.36N,139-49.87E,126,9.588,31.4028,8.26
856,2019/2/6,14:15,35-33.21N,139-50.12E,126,9.538,31.3369,8.26
857,2019/2/6,14:16,35-33.05N,139-50.39E,126,9.496,31.2876,8.26
858,2019/2/6,14:17,35-32.85N,139-50.63E,141,9.479,31.2339,8.26
859,2019/2/6,14:18,35-32.58N,139-50.76E,167,9.504,31.2541,8.27
860,2019/2/6,14:19,35-32.29N,139-50.77E,178,9.572,31.3497,8.27
861,2019/2/6,14:20,35-31.99N,139-50.79E,177,9.492,31.5133,8.27
862,2019/2/6,14:21,35-31.69N,139-50.82E,175,9.43,31.6657,8.27
863,2019/2/6,14:22,35-31.39N,139-50.84E,176,9.385,31.7491,8.27
864,2019/2/6,14:23,35-31.08N,139-50.86E,177,9.347,31.7808,8.27
865,2019/2/6,14:24,35-30.77N,139-50.88E,177,9.356,31.7893,8.28
866,2019/2/6,14:25,35-30.46N,139-50.89E,177,9.387,31.9129,8.28
867,2019/2/6,14:26,35-30.14N,139-50.90E,180,9.38,31.9745,8.28
868,2019/2/6,14:27,35-29.84N,139-50.82E,199,9.425,31.9864,8.3
869,2019/2/6,14:28,35-29.57N,139-50.62E,216,9.431,32.0215,8.3
870,2019/2/6,14:29,35-29.34N,139-50.36E,225,9.43,32.0603,8.3
871,2019/2/6,14:30,35-29.14N,139-50.07E,230,9.432,32.0869,8.3
872,2019/2/6,14:31,35-28.94N,139-49.77E,230,9.423,32.1221,8.3
873,2019/2/6,14:32,35-28.73N,139-49.47E,230,9.42,32.1453,8.3
874,2019/2/6,14:33,35-28.53N,139-49.17E,230,9.413,32.1685,8.3
875,2019/2/6,14:34,35-28.33N,139-48.87E,231,9.638,32.2109,8.3
876,2019/2/6,14:35,35-28.14N,139-48.56E,231,9.786,32.2795,8.3
877,2019/2/6,14:36,35-27.94N,139-48.26E,232,9.724,32.3426,8.3
878,2019/2/6,14:37,35-27.75N,139-47.94E,233,9.677,32.3185,8.29
879,2019/2/6,14:38,35-27.56N,139-47.63E,233,9.766,32.2141,8.29
880,2019/2/6,14:39,35-27.38N,139-47.31E,234,9.818,32.1419,8.27
881,2019/2/6,14:40,35-27.19N,139-46.99E,234,9.777,32.1511,8.28
882,2019/2/6,14:41,35-27.00N,139-46.66E,234,9.774,32.1757,8.28
883,2019/2/6,14:42,35-26.82N,139-46.34E,234,9.875,32.1747,8.27
884,2019/2/6,14:43,35-26.63N,139-46.02E,234,9.853,32.1923,8.27
885,2019/2/6,14:44,35-26.45N,139-45.70E,234,9.835,32.2063,8.27
886,2019/2/6,14:45,35-26.26N,139-45.38E,234,9.818,32.2345,8.28
887,2019/2/6,14:46,35-26.08N,139-45.06E,234,9.844,32.2418,8.27
888,2019/2/6,14:47,35-25.89N,139-44.73E,235,9.849,32.315,8.27
889,2019/2/6,14:48,35-25.71N,139-44.41E,235,9.885,32.3562,8.27
890,2019/2/6,14:49,35-25.52N,139-44.11E,229,9.924,32.4217,8.27
891,2019/2/6,14:50,35-25.29N,139-43.85E,220,9.963,32.4726,8.26
892,2019/2/6,14:51,35-25.05N,139-43.59E,221,10.099,32.5217,8.27
893,2019/2/6,14:52,35-24.81N,139-43.34E,221,10.132,32.5913,8.26
894,2019/2/6,14:53,35-24.57N,139-43.10E,216,10.207,32.6377,8.26
895,2019/2/6,14:54,35-24.30N,139-42.93E,203,10.269,32.6765,8.26
896,2019/2/6,14:55,35-24.01N,139-42.79E,202,10.326,32.7025,8.25
897,2019/2/6,14:56,35-23.72N,139-42.65E,201,10.283,32.7324,8.24
898,2019/2/6,14:57,35-23.43N,139-42.51E,200,10.228,32.7373,8.24
899,2019/2/6,14:58,35-23.14N,139-42.36E,200,10.353,32.6267,8.24
900,2019/2/6,14:59,35-22.83N,139-42.31E,182,10.344,32.6105,8.24
901,2019/2/6,15:00,35-22.53N,139-42.32E,179,10.342,32.6713,8.23
902,2019/2/6,15:01,35-22.25N,139-42.32E,179,10.29,32.6533,8.24
903,2019/2/6,15:02,35-22.02N,139-42.32E,179,10.302,32.6216,8.23
904,2019/2/6,15:03,35-21.80N,139-42.33E,179,10.308,32.5949,8.24
905,2019/2/6,15:04,35-21.61N,139-42.34E,176,10.319,32.5893,8.24
906,2019/2/6,15:05,35-21.43N,139-42.35E,175,10.284,32.6423,8.24
907,2019/2/6,15:06,35-21.25N,139-42.37E,175,10.273,32.6702,8.24
908,2019/2/6,15:07,35-21.07N,139-42.39E,175,10.25,32.6579,8.24
909,2019/2/6,15:08,35-20.88N,139-42.41E,175,10.216,32.6126,8.24
910,2019/2/6,15:09,35-20.71N,139-42.42E,175,10.21,32.5727,8.23
911,2019/2/6,15:10,35-20.53N,139-42.44E,175,10.192,32.5703,8.24
912,2019/2/6,15:11,35-20.36N,139-42.46E,172,10.174,32.5856,8.24
913,2019/2/6,15:12,35-20.18N,139-42.50E,170,10.196,32.5973,8.23
914,2019/2/6,15:13,35-20.01N,139-42.53E,170,10.182,32.6365,8.24
915,2019/2/6,15:14,35-19.84N,139-42.61E,154,10.225,32.6862,8.24
916,2019/2/6,15:15,35-19.70N,139-42.72E,146,10.254,32.7026,8.24
917,2019/2/6,15:16,35-19.56N,139-42.82E,146,10.17,32.7283,8.23
918,2019/2/6,15:17,35-19.43N,139-42.93E,146,10.068,32.7327,8.23
919,2019/2/6,15:18,35-19.28N,139-43.05E,146,9.892,32.6975,8.23
920,2019/2/6,15:19,35-19.12N,139-43.18E,147,9.874,32.6306,8.24
921,2019/2/6,15:20,35-18.96N,139-43.31E,146,9.935,32.5481,8.23
922,2019/2/6,15:21,35-18.80N,139-43.45E,143,10.306,32.541,8.24
923,2019/2/6,15:22,35-18.65N,139-43.58E,144,10.664,32.5859,8.24
924,2019/2/6,15:23,35-18.49N,139-43.72E,144,11.005,32.743,8.23
925,2019/2/6,15:24,35-18.33N,139-43.86E,144,11.217,32.8956,8.23
926,2019/2/6,15:25,35-18.16N,139-44.01E,144,11.376,33.0039,8.22
927,2019/2/6,15:26,35-18.00N,139-44.16E,143,11.539,33.0767,8.22
928,2019/2/6,15:27,35-17.84N,139-44.31E,143,11.628,33.1286,8.22
929,2019/2/6,15:28,35-17.67N,139-44.46E,143,11.621,33.1942,8.21
930,2019/2/6,15:29,35-17.50N,139-44.61E,143,11.665,33.2132,8.21
931,2019/2/6,15:30,35-17.34N,139-44.77E,143,11.725,33.2237,8.21
932,2019/2/6,15:31,35-17.17N,139-44.93E,142,11.743,33.2513,8.19
933,2019/2/6,15:32,35-17.00N,139-45.08E,143,11.797,33.272,8.2
934,2019/2/6,15:33,35-16.83N,139-45.24E,142,11.974,33.2844,8.19
935,2019/2/6,15:34,35-16.65N,139-45.39E,144,12.081,33.3195,8.19
936,2019/2/6,15:35,35-16.47N,139-45.55E,145,12.086,33.3628,8.19
937,2019/2/6,15:36,35-16.29N,139-45.70E,144,12.04,33.3857,8.19
938,2019/2/6,15:37,35-16.11N,139-45.86E,143,12.06,33.374,8.2
939,2019/2/6,15:38,35-15.93N,139-46.02E,143,11.614,33.3871,8.19
940,2019/2/6,15:39,35-15.75N,139-46.18E,147,11.488,33.3234,8.19
941,2019/2/6,15:40,35-15.53N,139-46.29E,161,11.625,33.2383,8.2
942,2019/2/6,15:41,35-15.31N,139-46.36E,167,11.998,33.2429,8.19
943,2019/2/6,15:42,35-15.09N,139-46.39E,173,12.499,33.2724,8.19
944,2019/2/6,15:43,35-14.86N,139-46.43E,173,12.5,33.4386,8.19
945,2019/2/6,15:44,35-14.63N,139-46.45E,175,12.189,33.5065,8.18
946,2019/2/6,15:45,35-14.41N,139-46.47E,175,12.068,33.4831,8.18
947,2019/2/6,15:46,35-14.19N,139-46.49E,175,12.198,33.4145,8.18
948,2019/2/6,15:47,35-13.96N,139-46.51E,175,12.071,33.4208,8.18
949,2019/2/6,15:48,35-13.73N,139-46.53E,176,12.186,33.4126,8.18
950,2019/2/6,15:49,35-13.50N,139-46.54E,178,12.299,33.4369,8.18
951,2019/2/6,15:50,35-13.27N,139-46.54E,181,12.965,33.4655,8.18
952,2019/2/6,15:51,35-13.05N,139-46.53E,184,13.123,33.5701,8.18
953,2019/2/6,15:52,35-12.83N,139-46.50E,185,13.758,33.6815,8.18
954,2019/2/6,15:53,35-12.60N,139-46.44E,194,15.112,33.7819,8.18
955,2019/2/6,15:54,35-12.35N,139-46.36E,195,15.591,34.0739,8.17
956,2019/2/6,15:55,35-12.08N,139-46.27E,195,15.78,34.2929,8.15
957,2019/2/6,15:56,35-11.80N,139-46.18E,194,15.828,34.4115,8.15
958,2019/2/6,15:57,35-11.51N,139-46.09E,193,15.835,34.455,8.13
959,2019/2/6,15:58,35-11.20N,139-46.01E,192,15.873,34.4693,8.14
960,2019/2/6,15:59,35-10.90N,139-45.93E,192,15.995,34.4797,8.13
961,2019/2/6,16:00,35-10.60N,139-45.84E,192,16.04,34.4913,8.12
962,2019/2/6,16:01,35-10.30N,139-45.76E,193,16.049,34.495,8.13
963,2019/2/6,16:02,35-09.99N,139-45.67E,193,16.067,34.4975,8.13
964,2019/2/6,16:03,35-09.68N,139-45.59E,191,16.047,34.5017,8.12
965,2019/2/6,16:04,35-09.37N,139-45.51E,191,16.048,34.5008,8.12
966,2019/2/6,16:05,35-09.06N,139-45.43E,192,16.143,34.4942,8.12
967,2019/2/6,16:06,35-08.74N,139-45.34E,192,16.174,34.5071,8.12
968,2019/2/6,16:07,35-08.44N,139-45.27E,191,16.223,34.5142,8.11
969,2019/2/6,16:08,35-08.13N,139-45.18E,193,16.259,34.52,8.12
970,2019/2/6,16:09,35-07.82N,139-45.08E,194,16.28,34.5254,8.11
971,2019/2/6,16:10,35-07.51N,139-44.98E,194,16.309,34.5267,8.12
972,2019/2/6,16:11,35-07.20N,139-44.88E,194,16.341,34.5278,8.11
973,2019/2/6,16:12,35-06.89N,139-44.78E,194,16.364,34.5292,8.11
974,2019/2/6,16:13,35-06.58N,139-44.70E,191,16.375,34.5315,8.11
975,2019/2/6,16:14,35-06.26N,139-44.61E,193,16.371,34.5271,8.12
976,2019/2/6,16:15,35-05.95N,139-44.52E,193,16.345,34.5318,8.11
977,2019/2/6,16:16,35-05.64N,139-44.43E,192,16.327,34.53,8.11
978,2019/2/6,16:17,35-05.32N,139-44.35E,192,16.309,34.5283,8.11
979,2019/2/6,16:18,35-05.01N,139-44.26E,193,16.284,34.5287,8.11
980,2019/2/6,16:19,35-04.69N,139-44.15E,196,16.294,34.5297,8.1
981,2019/2/6,16:20,35-04.38N,139-44.03E,197,16.468,34.5285,8.1
982,2019/2/6,16:21,35-04.08N,139-43.90E,199,16.598,34.5295,8.1
983,2019/2/6,16:22,35-03.78N,139-43.78E,198,16.624,34.5394,8.11
984,2019/2/6,16:23,35-03.47N,139-43.65E,199,16.74,34.5425,8.1
985,2019/2/6,16:24,35-03.17N,139-43.52E,197,16.847,34.5468,8.1
986,2019/2/6,16:25,35-02.86N,139-43.42E,195,16.887,34.5511,8.1
987,2019/2/6,16:26,35-02.55N,139-43.31E,195,16.924,34.5539,8.1
988,2019/2/6,16:27,35-02.24N,139-43.22E,192,16.941,34.5554,8.11
989,2019/2/6,16:28,35-01.92N,139-43.14E,191,16.941,34.5587,8.1
990,2019/2/6,16:29,35-01.60N,139-43.06E,191,16.939,34.5591,8.11
991,2019/2/6,16:30,35-01.29N,139-42.98E,191,16.935,34.5584,8.1
992,2019/2/6,16:31,35-00.98N,139-42.90E,191,16.922,34.5582,8.1
993,2019/2/6,16:32,35-00.66N,139-42.82E,191,16.896,34.5555,8.1
994,2019/2/6,16:33,35-00.34N,139-42.74E,191,16.93,34.5518,8.1
995,2019/2/6,16:34,35-00.02N,139-42.67E,191,16.961,34.5495,8.1
996,2019/2/6,16:35,34-59.71N,139-42.59E,191,16.993,34.5504,8.1
997,2019/2/6,16:36,34-59.40N,139-42.51E,191,17.008,34.5511,8.1
998,2019/2/6,16:37,34-59.08N,139-42.44E,190,17.013,34.5528,8.1
999,2019/2/6,16:38,34-58.77N,139-42.40E,179,17.053,34.5541,8.1
1000,2019/2/6,16:39,34-58.47N,139-42.50E,161,17.067,34.5581,8.1
1001,2019/2/6,16:40,34-58.18N,139-42.65E,153,17.103,34.5591,8.1
1002,2019/2/6,16:41,34-57.90N,139-42.84E,149,17.19,34.5596,8.1
1003,2019/2/6,16:42,34-57.62N,139-43.06E,146,17.274,34.5621,8.1
1004,2019/2/6,16:43,34-57.34N,139-43.28E,146,17.374,34.5657,8.1
1005,2019/2/6,16:44,34-57.05N,139-43.51E,146,17.443,34.5682,8.1
1006,2019/2/6,16:45,34-56.77N,139-43.74E,146,17.504,34.5723,8.1
1007,2019/2/6,16:46,34-56.49N,139-43.99E,143,17.595,34.576,8.1
1008,2019/2/6,16:47,34-56.22N,139-44.24E,142,17.616,34.5784,8.1
1009,2019/2/6,16:48,34-55.93N,139-44.49E,143,17.589,34.5821,8.1
1010,2019/2/6,16:49,34-55.65N,139-44.75E,143,17.581,34.5825,8.1
1011,2019/2/6,16:50,34-55.37N,139-45.01E,143,17.599,34.5825,8.11
1012,2019/2/6,16:51,34-55.09N,139-45.28E,140,17.611,34.5829,8.1
1013,2019/2/6,16:52,34-54.83N,139-45.56E,136,17.64,34.583,8.1
1014,2019/2/6,16:53,34-54.58N,139-45.87E,135,17.666,34.5845,8.1
1015,2019/2/6,16:54,34-54.32N,139-46.18E,135,17.609,34.5854,8.1
1016,2019/2/6,16:55,34-54.06N,139-46.49E,135,17.642,34.5854,8.1
1017,2019/2/6,16:56,34-53.82N,139-46.79E,132,17.621,34.585,8.1
1018,2019/2/6,16:57,34-53.59N,139-47.11E,131,17.473,34.5862,8.1
1019,2019/2/6,16:58,34-53.35N,139-47.44E,132,17.28,34.5844,8.1
1020,2019/2/6,16:59,34-53.13N,139-47.75E,129,17.207,34.5765,8.1
1021,2019/2/6,17:00,34-52.92N,139-48.08E,127,17.069,34.5725,8.1
1022,2019/2/6,17:01,34-52.72N,139-48.42E,126,16.998,34.567,8.11
1023,2019/2/6,17:02,34-52.52N,139-48.76E,124,16.983,34.5606,8.1
1024,2019/2/6,17:03,34-52.33N,139-49.09E,124,17.03,34.5569,8.11
1025,2019/2/6,17:04,34-52.13N,139-49.42E,126,17.024,34.557,8.1
1026,2019/2/6,17:05,34-51.94N,139-49.74E,126,16.907,34.5597,8.09
1027,2019/2/6,17:06,34-51.75N,139-50.06E,125,16.651,34.5582,8.1
1028,2019/2/6,17:07,34-51.60N,139-50.41E,114,16.068,34.5511,8.09
1029,2019/2/6,17:08,34-51.47N,139-50.75E,111,16.065,34.5261,8.1
1030,2019/2/6,17:09,34-51.37N,139-51.11E,109,15.942,34.5115,8.1
1031,2019/2/6,17:10,34-51.27N,139-51.47E,103,15.911,34.5054,8.1
1032,2019/2/6,17:11,34-51.20N,139-51.84E,104,15.827,34.5013,8.09
1033,2019/2/6,17:12,34-51.14N,139-52.21E,99,15.817,34.5002,8.08
1034,2019/2/6,17:13,34-51.10N,139-52.58E,98,15.835,34.4977,8.08
1035,2019/2/6,17:14,34-51.07N,139-52.95E,94,15.883,34.4965,8.07
1036,2019/2/6,17:15,34-51.05N,139-53.32E,93,15.925,34.4952,8.08
1037,2019/2/6,17:16,34-51.05N,139-53.71E,89,15.952,34.4936,8.07
1038,2019/2/6,17:17,34-51.06N,139-54.09E,84,15.979,34.4975,8.07
1039,2019/2/6,17:18,34-51.14N,139-54.45E,71,15.968,34.5019,8.07
1040,2019/2/6,17:19,34-51.25N,139-54.79E,68,15.953,34.5037,8.06
1041,2019/2/6,17:20,34-51.37N,139-55.14E,68,15.943,34.5034,8.07
1042,2019/2/6,17:21,34-51.48N,139-55.50E,68,15.941,34.5043,8.07
1043,2019/2/6,17:22,34-51.60N,139-55.86E,69,15.931,34.5044,8.07
1044,2019/2/6,17:23,34-51.70N,139-56.21E,71,15.918,34.5042,8.07
1045,2019/2/6,17:24,34-51.80N,139-56.58E,71,15.921,34.5045,8.07
1046,2019/2/6,17:25,34-51.89N,139-56.95E,72,15.912,34.5045,8.07
1047,2019/2/6,17:26,34-51.99N,139-57.30E,72,15.913,34.5066,8.07
1048,2019/2/6,17:27,34-52.08N,139-57.66E,72,15.899,34.5062,8.07
1049,2019/2/6,17:28,34-52.17N,139-58.03E,72,15.901,34.5059,8.07
1050,2019/2/6,17:29,34-52.27N,139-58.39E,73,15.905,34.505,8.07
1051,2019/2/6,17:30,34-52.36N,139-58.75E,72,15.901,34.5064,8.07
1052,2019/2/6,17:31,34-52.47N,139-59.10E,68,15.898,34.5067,8.07
1053,2019/2/6,17:32,34-52.59N,139-59.45E,65,15.902,34.506,8.07
1054,2019/2/6,17:33,34-52.73N,139-59.79E,63,15.906,34.5057,8.07
1055,2019/2/6,17:34,34-52.89N,140-00.13E,59,15.904,34.5072,8.07
1056,2019/2/6,17:35,34-53.05N,140-00.45E,58,15.9,34.5079,8.07
1057,2019/2/6,17:36,34-53.21N,140-00.77E,58,15.893,34.5079,8.07
1058,2019/2/6,17:37,34-53.38N,140-01.10E,58,15.885,34.508,8.07
1059,2019/2/6,17:38,34-53.54N,140-01.42E,58,15.874,34.5076,8.07
1060,2019/2/6,17:39,34-53.71N,140-01.73E,56,15.857,34.5071,8.07
1061,2019/2/6,17:40,34-53.89N,140-02.05E,55,15.833,34.5073,8.07
1062,2019/2/6,17:41,34-54.07N,140-02.37E,55,15.798,34.5059,8.07
1063,2019/2/6,17:42,34-54.25N,140-02.69E,56,15.723,34.5037,8.07
1064,2019/2/6,17:43,34-54.42N,140-03.01E,56,15.619,34.5013,8.07
1065,2019/2/6,17:44,34-54.59N,140-03.32E,56,15.527,34.4958,8.07
1066,2019/2/6,17:45,34-54.77N,140-03.64E,54,15.441,34.4913,8.07
1067,2019/2/6,17:46,34-54.96N,140-03.96E,56,15.846,34.4885,8.07
1068,2019/2/6,17:47,34-55.12N,140-04.27E,57,15.994,34.4965,8.07
1069,2019/2/6,17:48,34-55.29N,140-04.59E,57,16.061,34.5066,8.07
1070,2019/2/6,17:49,34-55.45N,140-04.90E,58,16.113,34.5156,8.07
1071,2019/2/6,17:50,34-55.62N,140-05.22E,58,16.143,34.5177,8.07
1072,2019/2/6,17:51,34-55.79N,140-05.55E,58,16.159,34.5209,8.07
1073,2019/2/6,17:52,34-55.95N,140-05.87E,58,16.174,34.522,8.07
1074,2019/2/6,17:53,34-56.11N,140-06.19E,58,16.181,34.5233,8.07
1075,2019/2/6,17:54,34-56.28N,140-06.51E,59,16.171,34.5251,8.07
1076,2019/2/6,17:55,34-56.44N,140-06.84E,58,16.127,34.5228,8.07
1077,2019/2/6,17:56,34-56.60N,140-07.17E,59,16.09,34.5199,8.07
1078,2019/2/6,17:57,34-56.76N,140-07.49E,60,16.049,34.5187,8.08
1079,2019/2/6,17:58,34-56.91N,140-07.81E,60,15.898,34.5174,8.07
1080,2019/2/6,17:59,34-57.07N,140-08.15E,61,15.944,34.5137,8.07
1081,2019/2/6,18:00,34-57.22N,140-08.48E,61,15.833,34.5092,8.07
1082,2019/2/6,18:01,34-57.38N,140-08.80E,58,15.63,34.5074,8.07
1083,2019/2/6,18:02,34-57.53N,140-09.12E,61,15.594,34.4981,8.08
1084,2019/2/6,18:03,34-57.68N,140-09.45E,61,15.541,34.4927,8.07
1085,2019/2/6,18:04,34-57.83N,140-09.78E,61,15.488,34.4899,8.08
1086,2019/2/6,18:05,34-57.98N,140-10.11E,60,15.592,34.4861,8.07
1087,2019/2/6,18:06,34-58.14N,140-10.42E,58,15.657,34.4861,8.07
1088,2019/2/6,18:07,34-58.29N,140-10.74E,59,15.651,34.492,8.07
1089,2019/2/6,18:08,34-58.45N,140-11.06E,60,15.626,34.4969,8.07
1090,2019/2/6,18:09,34-58.61N,140-11.38E,58,15.632,34.4948,8.06
1091,2019/2/6,18:10,34-58.76N,140-11.69E,58,15.635,34.4927,8.06
1092,2019/2/6,18:11,34-58.92N,140-12.00E,58,15.604,34.4916,8.07
1093,2019/2/6,18:12,34-59.09N,140-12.31E,56,15.601,34.49,8.07
1094,2019/2/6,18:13,34-59.26N,140-12.62E,56,15.599,34.4904,8.07
1095,2019/2/6,18:14,34-59.43N,140-12.93E,56,15.587,34.4909,8.07
1096,2019/2/6,18:15,34-59.60N,140-13.23E,56,15.622,34.49,8.07
1097,2019/2/6,18:16,34-59.77N,140-13.55E,56,15.622,34.4905,8.07
1098,2019/2/6,18:17,34-59.94N,140-13.86E,56,15.607,34.4911,8.07
1099,2019/2/6,18:18,35-00.12N,140-14.18E,55,15.578,34.4925,8.07
1100,2019/2/6,18:19,35-00.29N,140-14.48E,55,15.609,34.49,8.07
1101,2019/2/6,18:20,35-00.46N,140-14.78E,55,15.786,34.4871,8.06
1102,2019/2/6,18:21,35-00.64N,140-15.10E,56,15.948,34.4942,8.07
1103,2019/2/6,18:22,35-00.82N,140-15.41E,55,15.961,34.5094,8.06
1104,2019/2/6,18:23,35-00.99N,140-15.71E,55,15.898,34.514,8.06
1105,2019/2/6,18:24,35-01.17N,140-16.01E,53,15.926,34.5083,8.07
1106,2019/2/6,18:25,35-01.36N,140-16.31E,53,15.976,34.5091,8.07
1107,2019/2/6,18:26,35-01.54N,140-16.62E,53,16.038,34.5144,8.07
1108,2019/2/6,18:27,35-01.73N,140-16.93E,54,16.075,34.5154,8.08
1109,2019/2/6,18:28,35-01.91N,140-17.23E,53,16.095,34.5158,8.07
1110,2019/2/6,18:29,35-02.09N,140-17.53E,53,16.111,34.5172,8.08
1111,2019/2/6,18:30,35-02.28N,140-17.83E,54,16.135,34.5167,8.08
1112,2019/2/6,18:31,35-02.46N,140-18.14E,54,16.15,34.5189,8.07
1113,2019/2/6,18:32,35-02.64N,140-18.44E,54,16.168,34.5205,8.08
1114,2019/2/6,18:33,35-02.82N,140-18.75E,54,16.174,34.5221,8.07
1115,2019/2/6,18:34,35-03.00N,140-19.06E,56,16.168,34.5243,8.09
1116,2019/2/6,18:35,35-03.17N,140-19.37E,56,16.152,34.524,8.08
1117,2019/2/6,18:36,35-03.34N,140-19.69E,56,16.139,34.521,8.07
1118,2019/2/6,18:37,35-03.51N,140-20.01E,57,16.145,34.5174,8.08
1119,2019/2/6,18:38,35-03.67N,140-20.32E,57,16.151,34.5171,8.09
1120,2019/2/6,18:39,35-03.84N,140-20.63E,57,16.151,34.5175,8.09
1121,2019/2/6,18:40,35-04.01N,140-20.95E,57,16.146,34.5191,8.08
1122,2019/2/6,18:41,35-04.17N,140-21.26E,57,16.151,34.5186,8.08
1123,2019/2/6,18:42,35-04.34N,140-21.58E,57,16.161,34.5191,8.09
1124,2019/2/6,18:43,35-04.51N,140-21.90E,57,16.172,34.5195,8.08
1125,2019/2/6,18:44,35-04.68N,140-22.23E,57,16.178,34.5205,8.08
1126,2019/2/6,18:45,35-04.86N,140-22.55E,55,16.186,34.521,8.08
1127,2019/2/6,18:46,35-05.05N,140-22.84E,49,16.189,34.5215,8.07
1128,2019/2/6,18:47,35-05.26N,140-23.13E,46,16.194,34.5221,8.07
1129,2019/2/6,18:48,35-05.49N,140-23.41E,45,16.197,34.5232,8.07
1130,2019/2/6,18:49,35-05.71N,140-23.68E,45,16.203,34.5241,8.08
1131,2019/2/6,18:50,35-05.94N,140-23.97E,45,16.199,34.5253,8.08
1132,2019/2/6,18:51,35-06.15N,140-24.24E,46,16.2,34.5258,8.08
1133,2019/2/6,18:52,35-06.38N,140-24.52E,46,16.187,34.5256,8.08
1134,2019/2/6,18:53,35-06.60N,140-24.81E,47,16.172,34.5244,8.08
1135,2019/2/6,18:54,35-06.78N,140-25.13E,57,16.171,34.5219,8.08
1136,2019/2/6,18:55,35-06.95N,140-25.46E,57,16.182,34.5205,8.08
1137,2019/2/6,18:56,35-07.13N,140-25.79E,57,16.192,34.5221,8.08
1138,2019/2/6,18:57,35-07.30N,140-26.11E,57,16.192,34.5235,8.08
1139,2019/2/6,18:58,35-07.47N,140-26.44E,57,16.191,34.5233,8.08
1140,2019/2/6,18:59,35-07.65N,140-26.77E,57,16.192,34.5236,8.08
1141,2019/2/6,19:00,35-07.82N,140-27.11E,58,16.188,34.5241,8.08
1142,2019/2/6,19:01,35-07.99N,140-27.45E,58,16.186,34.5233,8.08
1143,2019/2/6,19:02,35-08.16N,140-27.79E,57,16.187,34.5233,8.07
1144,2019/2/6,19:03,35-08.33N,140-28.11E,57,16.188,34.5237,8.08
1145,2019/2/6,19:04,35-08.50N,140-28.44E,58,16.19,34.5235,8.08
1146,2019/2/6,19:05,35-08.67N,140-28.77E,58,16.193,34.5237,8.08
1147,2019/2/6,19:06,35-08.84N,140-29.11E,58,16.191,34.5247,8.08
1148,2019/2/6,19:07,35-09.01N,140-29.44E,58,16.191,34.5244,8.08
1149,2019/2/6,19:08,35-09.17N,140-29.78E,58,16.191,34.5255,8.08
1150,2019/2/6,19:09,35-09.34N,140-30.11E,58,16.192,34.526,8.08
1151,2019/2/6,19:10,35-09.51N,140-30.45E,58,16.187,34.5266,8.07
1152,2019/2/6,19:11,35-09.67N,140-30.78E,58,16.181,34.5261,8.07
1153,2019/2/6,19:12,35-09.84N,140-31.11E,59,16.175,34.5254,8.07
1154,2019/2/6,19:13,35-10.00N,140-31.44E,59,16.174,34.5256,8.07
1155,2019/2/6,19:14,35-10.17N,140-31.78E,58,16.17,34.5257,8.08
1156,2019/2/6,19:15,35-10.33N,140-32.12E,58,16.162,34.5253,8.08
1157,2019/2/6,19:16,35-10.50N,140-32.46E,58,16.157,34.5255,8.08
1158,2019/2/6,19:17,35-10.66N,140-32.78E,58,16.163,34.5251,8.08
1159,2019/2/6,19:18,35-10.83N,140-33.11E,57,16.166,34.525,8.08
1160,2019/2/6,19:19,35-11.01N,140-33.44E,56,16.168,34.5243,8.08
1161,2019/2/6,19:20,35-11.18N,140-33.76E,56,16.168,34.525,8.08
1162,2019/2/6,19:21,35-11.36N,140-34.08E,55,16.168,34.5245,8.08
1163,2019/2/6,19:22,35-11.56N,140-34.38E,50,16.171,34.5243,8.09
1164,2019/2/6,19:23,35-11.77N,140-34.67E,46,16.17,34.5248,8.08
1165,2019/2/6,19:24,35-12.00N,140-34.94E,43,16.174,34.5254,8.07
1166,2019/2/6,19:25,35-12.24N,140-35.21E,43,16.177,34.5252,8.08
1167,2019/2/6,19:26,35-12.47N,140-35.48E,42,16.177,34.5252,8.08
1168,2019/2/6,19:27,35-12.71N,140-35.75E,43,16.183,34.5255,8.08
1169,2019/2/6,19:28,35-12.95N,140-36.02E,42,16.179,34.5254,8.08
1170,2019/2/6,19:29,35-13.18N,140-36.29E,43,16.178,34.5249,8.08
1171,2019/2/6,19:30,35-13.43N,140-36.57E,43,16.172,34.5246,8.07
1172,2019/2/6,19:31,35-13.66N,140-36.84E,43,16.157,34.5246,8.08
1173,2019/2/6,19:32,35-13.90N,140-37.11E,43,16.143,34.5252,8.08
1174,2019/2/6,19:33,35-14.13N,140-37.39E,43,16.119,34.5253,8.08
1175,2019/2/6,19:34,35-14.37N,140-37.67E,43,16.084,34.525,8.07
1176,2019/2/6,19:35,35-14.61N,140-37.94E,43,16.026,34.5239,8.07
1177,2019/2/6,19:36,35-14.85N,140-38.22E,43,15.953,34.5212,8.08
1178,2019/2/6,19:37,35-15.11N,140-38.48E,39,15.931,34.5178,8.08
1179,2019/2/6,19:38,35-15.36N,140-38.73E,39,15.924,34.5157,8.07
1180,2019/2/6,19:39,35-15.61N,140-38.99E,39,15.743,34.5161,8.07
1181,2019/2/6,19:40,35-15.87N,140-39.25E,39,15.815,34.5139,8.08
1182,2019/2/6,19:41,35-16.13N,140-39.51E,39,15.646,34.5108,8.08
1183,2019/2/6,19:42,35-16.39N,140-39.77E,39,15.461,34.5053,8.08
1184,2019/2/6,19:43,35-16.64N,140-40.02E,39,15.301,34.4983,8.08
1185,2019/2/6,19:44,35-16.91N,140-40.27E,36,15.156,34.4888,8.07
1186,2019/2/6,19:45,35-17.17N,140-40.49E,33,15.021,34.4805,8.07
1187,2019/2/6,19:46,35-17.43N,140-40.70E,32,15.006,34.4726,8.06
1188,2019/2/6,19:47,35-17.70N,140-40.91E,33,15.142,34.4675,8.06
1189,2019/2/6,19:48,35-17.96N,140-41.12E,32,15.222,34.4698,8.05
1190,2019/2/6,19:49,35-18.23N,140-41.33E,32,15.292,34.4758,8.04
1191,2019/2/6,19:50,35-18.50N,140-41.54E,33,15.338,34.4802,8.04
1192,2019/2/6,19:51,35-18.76N,140-41.75E,32,15.362,34.4826,8.04
1193,2019/2/6,19:52,35-19.03N,140-41.96E,33,15.392,34.4848,8.04
1194,2019/2/6,19:53,35-19.29N,140-42.17E,33,15.409,34.486,8.04
1195,2019/2/6,19:54,35-19.56N,140-42.39E,33,15.406,34.4889,8.05
1196,2019/2/6,19:55,35-19.83N,140-42.60E,34,15.363,34.4925,8.04
1197,2019/2/6,19:56,35-20.09N,140-42.81E,33,15.224,34.4962,8.05
1198,2019/2/6,19:57,35-20.36N,140-43.02E,33,15.28,34.4969,8.05
1199,2019/2/6,19:58,35-20.62N,140-43.24E,33,15.194,34.4955,8.05
1200,2019/2/6,19:59,35-20.89N,140-43.45E,33,15.109,34.4949,8.04
1201,2019/2/6,20:00,35-21.15N,140-43.66E,33,14.862,34.4945,8.05
1202,2019/2/6,20:01,35-21.41N,140-43.87E,32,14.78,34.4918,8.05
1203,2019/2/6,20:02,35-21.67N,140-44.07E,33,14.707,34.4816,8.06
1204,2019/2/6,20:03,35-21.93N,140-44.28E,33,14.69,34.4752,8.05
1205,2019/2/6,20:04,35-22.19N,140-44.49E,33,14.685,34.4776,8.05
1206,2019/2/6,20:05,35-22.45N,140-44.68E,31,14.683,34.479,8.05
1207,2019/2/6,20:06,35-22.70N,140-44.88E,32,14.682,34.4798,8.05
1208,2019/2/6,20:07,35-22.96N,140-45.08E,32,14.664,34.4802,8.04
1209,2019/2/6,20:08,35-23.22N,140-45.28E,32,14.66,34.4808,8.04